This demonstration page uses our WeatherBlox Daily Observations layout. Learn more.

Left ArrowRight Arrow

Hourly Observations for September 10, 2018

Temp ( °F °C ) Dew Point ( °F °C ) Humidity (%) Winds ( mph kmh ) Pressure ( in mb ) Visibility ( mi km ) Precip ( " mm )
12:15 am 00:15 Cloudy 61 16.1 60 15.6 97 97 WNW 6 9 29.85 1011 7 11 0.00 0.00
12:53 am 00:53 Cloudy 61 16.1 60 15.6 97 97 W 5 7 29.85 1011 10 16 0.00 0.00
1:01 am 01:01 Cloudy 61 16.1 60 15.6 97 97 WNW 5 7 29.85 1011 10 16 0.00 0.00
1:53 am 01:53 Cloudy with Mist and Fog 61 16.1 60 15.6 97 97 WSW 5 7 29.86 1011 5 8 0.00 0.00
2:05 am 02:05 Cloudy with Light Rain 61 16.1 60 15.6 97 97 W 5 7 29.85 1011 2 3 0.00 0.03
2:22 am 02:22 Cloudy with Mist and Fog 60 15.6 59 15 96 96 W 6 9 29.85 1011 4 6 0.01 0.25
2:53 am 02:53 Cloudy with Mist and Fog 60 15.6 59 15 96 96 W 5 7 29.85 1011 3 4 0.01 0.25
3:05 am 03:05 Cloudy with Mist and Fog 60 15.6 59 15 96 96 W 5 7 29.85 1011 3 5 0.00 0.00
3:53 am 03:53 Cloudy 60 15.6 58 14.4 93 93 W 5 7 29.86 1011 10 16 0.00 0.00
4:15 am 04:15 Cloudy 60 15.6 58 14.4 93 93 W 3 6 29.88 1012 9 14 0.00 0.00
4:36 am 04:36 Cloudy 60 15.6 58 14.4 93 93 WSW 3 6 29.88 1012 10 16 0.00 0.00
4:53 am 04:53 Cloudy 59 15 58 14.4 96 96 W 6 9 29.87 1011 7 11 0.00 0.00
5:53 am 05:53 Cloudy 59 15 58 14.4 96 96 W 3 6 29.87 1012 10 16 0.00 0.00
6:53 am 06:53 Cloudy 59 15 58 14.4 96 96 W 6 9 29.89 1012 10 16 0.00 0.00
7:53 am 07:53 Cloudy 59 15 58 14.4 96 96 WSW 6 9 29.92 1013 10 16 0.00 0.00
8:12 am 08:12 Cloudy 59 15 58 14.4 96 96 W 6 9 29.94 1014 10 16 0.00 0.00
8:23 am 08:23 Cloudy 60 15.6 58 14.4 93 93 W 6 9 29.94 1014 10 16 0.00 0.00
8:37 am 08:37 Cloudy with Mist and Fog 59 15 58 14.4 96 96 W 7 11 29.94 1014 4 6 0.00 0.00
8:53 am 08:53 Cloudy with Light Rain 59 15 58 14.4 96 96 W 5 7 29.93 1014 5 8 0.00 0.03
9:18 am 09:18 Cloudy 60 15.6 59 15 96 96 W 6 9 29.94 1014 9 14 0.00 0.03
9:25 am 09:25 Cloudy with Light Rain 60 15.6 58 14.4 93 93 W 6 9 29.94 1014 3 5 0.00 0.03
9:38 am 09:38 Cloudy 60 15.6 58 14.4 93 93 W 7 11 29.94 1014 9 14 0.01 0.25
9:53 am 09:53 Cloudy 60 15.6 58 14.4 93 93 W 8 13 29.94 1014 10 16 0.01 0.25
10:27 am 10:27 Cloudy 59 15 57 13.9 93 93 WNW 9 15 29.97 1015 10 16 0.00 0.00
10:53 am 10:53 Cloudy 60 15.6 58 14.4 93 93 W 7 11 29.97 1015 10 16 0.00 0.00
11:41 am 11:41 Cloudy 61 16.1 59 15 93 93 W 7 11 29.97 1015 10 16 0.00 0.00
11:53 am 11:53 Cloudy 62 16.7 59 15 90 90 W 5 7 29.98 1015 10 16 0.00 0.00
12:53 pm 12:53 Cloudy 62 16.7 60 15.6 93 93 WSW 7 11 29.98 1015 10 16 0.00 0.00
1:53 pm 13:53 Cloudy 62 16.7 58 14.4 86 86 WSW 6 9 29.99 1016 10 16 0.00 0.00
2:53 pm 14:53 Cloudy 62 16.7 58 14.4 86 86 W 5 7 29.99 1016 10 16 0.00 0.00
3:53 pm 15:53 Cloudy 63 17.2 58 14.4 84 84 W 6 9 29.99 1016 10 16 0.00 0.00
4:53 pm 16:53 Cloudy 64 17.8 59 15 84 84 WSW 3 6 29.99 1016 10 16 0.00 0.00
5:53 pm 17:53 Cloudy 64 17.8 59 15 84 84 VRB 3 6 30.00 1016 10 16 0.00 0.00
6:24 pm 18:24 Cloudy 65 18.3 59 15 81 81 WNW 3 6 30.00 1016 10 16 0.00 0.00
6:53 pm 18:53 Cloudy 64 17.8 59 15 84 84 W 5 7 30.01 1016 10 16 0.00 0.00
7:00 pm 19:00 Cloudy 65 18.3 59 15 81 81 W 6 9 30.00 1016 10 16 0.00 0.00
7:23 pm 19:23 Cloudy 64 17.8 59 15 84 84 NW 7 11 30.03 1017 10 16 0.00 0.00
7:53 pm 19:53 Cloudy 64 17.8 59 15 84 84 NW 3 6 30.02 1017 10 16 0.00 0.00
8:53 pm 20:53 Cloudy 63 17.2 60 15.6 90 90 Calm 30.04 1017 10 16 0.00 0.00
9:53 pm 21:53 Cloudy 62 16.7 60 15.6 93 93 Calm 30.07 1018 10 16 0.00 0.00
10:53 pm 22:53 Cloudy 62 16.7 60 15.6 93 93 Calm 30.08 1019 10 16 0.00 0.00
11:53 pm 23:53 Cloudy 62 16.7 61 16.1 96 96 Calm 30.10 1019 10 16 0.00 0.00

Powered by AerisWeather